Regional Weather Roundup
Issued by NWS Little Rock, AR

Home | Current Version | Previous Version | Text Only | Print | Product List | Glossary Off
Versions: 1 2 3 4 5 6 7 8 9 10 11 12 13 14 15 16 17 18 19 20 21 22 23 24 25 26 27 28 29 30 31 32 33 34 35 36 37 38 39 40 41 42 43 44 45 46 47 48 49 50

896
ASUS44 KLZK 291205
RWRLZK

WEATHER ROUNDUP FOR ARKANSAS
NATIONAL WEATHER SERVICE LITTLE ROCK AR
700 AM CDT SAT APR 29 2017

NOTE: "FAIR" INDICATES FEW OR NO CLOUDS BELOW 12,000 FEET WITH NO
SIGNIFICANT WEATHER AND/OR OBSTRUCTIONS TO VISIBILITY.

ARZ001-003-010-029-291300-
NORTHWEST ARKANSAS

CITY           SKY/WX    TMP DP  RH WIND       PRES   REMARKS
FAYETTEVILLE   CLOUDY    65  65 100 N3        29.64F FOG
6HR MIN TEMP:  64; 6HR MAX TEMP:  73; 6HR PCP:  0.07;

FORT SMITH     CLOUDY    77  70  79 S7        29.61S
6HR MIN TEMP:  68; 6HR MAX TEMP:  78;

HARRISON       CLOUDY    64  64 100 CALM      29.72S FOG
6HR MIN TEMP:  63; 6HR MAX TEMP:  66; 6HR PCP:  0.53;

BENTONVILLE    CLOUDY    63  61  94 E7        29.65S THUNDER
6HR MIN TEMP:  63; 6HR MAX TEMP:  64; 6HR PCP:  1.48;

ROGERS         TSTM      63  63 100 SE9       29.67R
6HR MIN TEMP:  62; 6HR MAX TEMP:  64;

SILOAM SPGS    CLOUDY    64  61  88 E5        29.63S
HIGHFILL       CLOUDY    64  63  96 E6        29.64F
6HR MIN TEMP:  62; 6HR MAX TEMP:  65; 6HR PCP:  1.65;

SPRINGDALE     TSTM      64  64 100 NE6G14    29.66F
$$

ARZ004-005-016-291300-
NORTH CENTRAL ARKANSAS

CITY           SKY/WX    TMP DP  RH WIND       PRES   REMARKS
BATESVILLE     CLOUDY    73  70  88 SE9       29.76S
6HR MIN TEMP:  73; 6HR MAX TEMP:  79;

FLIPPIN        CLOUDY   N/A N/A N/A CALM      29.69R
                                      6HR PCP:  0.02;

MTN HOME       LGT RAIN  66  66 100 E3        29.72R FOG
6HR MIN TEMP:  65; 6HR MAX TEMP:  69; 6HR PCP:  0.03;

$$

ARZ040-041-291300-
WEST CENTRAL ARKANSAS

CITY           SKY/WX    TMP DP  RH WIND       PRES   REMARKS
MENA           CLOUDY    77  75  94 SE10G26   29.68R
MOUNT IDA      LGT RAIN  74  71  91 VRB7G17   29.70R FOG
6HR MIN TEMP:  74; 6HR MAX TEMP:  78; 6HR PCP:  0.11;

$$

ARZ009-017-025-026-028-291300-
NORTHEAST ARKANSAS

CITY           SKY/WX    TMP DP  RH WIND       PRES   REMARKS
CORNING        CLOUDY    73  73 100 S12       29.80R
JONESBORO      CLOUDY    75  69  81 S14       29.80R
6HR MIN TEMP:  75; 6HR MAX TEMP:  76;

NEWPORT        CLOUDY    74  70  87 MISG      29.79R
6HR MIN TEMP:  74; 6HR MAX TEMP:  77;

WALNUT RIDGE   CLOUDY    73  68  83 S18       29.78R
6HR MIN TEMP:  73; 6HR MAX TEMP:  75;

BLYTHEVILLE    CLOUDY    75  70  84 S12       29.85R
6HR MIN TEMP:  75; 6HR MAX TEMP:  78;

$$

ARZ022-023-033-042-044-291300-
CENTRAL ARKANSAS

CITY           SKY/WX    TMP DP  RH WIND       PRES   REMARKS
LITTLE ROCK    MOCLDY    76  70  82 S13G23    29.75R
6HR MIN TEMP:  76; 6HR MAX TEMP:  78;

N LITTLE ROCK    N/A     76  69  80 S10G23    29.74R
6HR MIN TEMP:  76; 6HR MAX TEMP:  78;

JACKSONVILLE   MOCLDY    77  71  80 SE10      29.75R
6HR MIN TEMP:  77; 6HR MAX TEMP:  79;

CONWAY           N/A     77  72  83 S18G26    29.70F HAZE
SEARCY         MOCLDY    75  72  90 S13       29.77S
6HR MIN TEMP:  75; 6HR MAX TEMP:  78;

HOT SPRINGS    CLOUDY    77  71  82 SE8G17    29.73R
6HR MIN TEMP:  76; 6HR MAX TEMP:  79;

RUSSELLVILLE   CLOUDY    76  71  85 S8G17     29.70R
6HR MIN TEMP:  75; 6HR MAX TEMP:  78;

CLINTON        DRIZZLE   73  72  94 S5        29.73R
$$

ARZ036-291300-
EAST ARKANSAS

CITY           SKY/WX    TMP DP  RH WIND       PRES   REMARKS
WEST MEMPHIS   CLOUDY    74  70  87 S18       29.84R
6HR MIN TEMP:  74; 6HR MAX TEMP:  77;

$$

ARZ050-053-066-070-073-291300-
SOUTHWEST ARKANSAS

CITY           SKY/WX    TMP DP  RH WIND       PRES   REMARKS
ARKADELPHIA    CLOUDY    78  70  76 S12       29.74R
6HR MIN TEMP:  78; 6HR MAX TEMP:  80;

CAMDEN         CLOUDY    77  66  69 S13       29.74R
TEXARKANA      CLOUDY    77  71  82 S15G24    29.69R
6HR MIN TEMP:  75; 6HR MAX TEMP:  79; 6HR PCP: TRACE;

EL DORADO      CLOUDY    78  69  73 S13       29.75R
6HR MIN TEMP:  78; 6HR MAX TEMP:  79; 6HR PCP: TRACE;

DE QUEEN       CLOUDY    76  75  97 S9G20     29.65R
6HR MIN TEMP:  75; 6HR MAX TEMP:  79; 6HR PCP:  0.02;

$$

ARZ056-057-069-291300-
SOUTHEAST ARKANSAS

CITY           SKY/WX    TMP DP  RH WIND       PRES   REMARKS
PINE BLUFF     PTCLDY    76  69  79 S15G22    29.79R
6HR MIN TEMP:  76; 6HR MAX TEMP:  79;

STUTTGART      CLOUDY    75  63  64 S17       29.80R
6HR MIN TEMP:  75; 6HR MAX TEMP:  77;

MONTICELLO     CLOUDY    77  69  76 SE10G18   29.80R
6HR MIN TEMP:  76; 6HR MAX TEMP:  79;


$$






USA.gov is the U.S. government's official web portal to all federal, state and local government web resources and services.